sat.trackr.live / text

‹ back to catalog

STARLINK-31323

NORAD 58882 · 2024-020G

PAYLOAD ACTIVE UNKNOWN

§ Identity

Operator
Country
US
Launch date
2024-01-29
Launch site
AFWTR
Launch vehicle
Mass (kg)
RCS (m²)

Purposes: comms

External: N2YO · Heavens-Above · Gunter

§ Orbital elements

Epoch: 2026-05-24T19:58:42.867840Z

Period
93.85 min
Inclination
53.1624°
Eccentricity
0.0001024
Mean motion
15.34395141 rev/d
Perigee alt
462.0 km
Apogee alt
463.4 km
Semi-major
6,840.9 km
B*
1.3575e-6
RAAN
328.4103°
Arg perigee
78.5440°
Mean anomaly
281.5677°
Rev number
12,973

§ Raw data

STARLINK-313231 58882U 24020G   26144.83244060 -.00000330  00000+0  13575-5 0  99952 58882  53.1624 328.4103 0001024  78.5440 281.5677 15.34395141129734

JSON: /api/v1/satellites/58882 · /tle

For live sub-satellite position, see the globe view (requires WebGL).

§ Visibility from observer

Set your observer location to see the next 7 days of passes ≥ 10°. The values pass through the URL so the page stays shareable.

No JS? Fill the form by hand. The geolocation button needs JavaScript.